QPF
0.00 0.01 0.01 0.02 0.02 0.01 0.02 0.02 0.02 0.02 0.03 0.03 0.04 0.04 0.05 0.05 0.06 0.07 0.07 0.06 0.07 0.09 0.15 0.20 0.24 0.27 0.30 0.32 0.33 0.33 0.33 0.31 0.29 0.30 0.23 0.18 0.14 0.08 0.04 0.02 0.02 0.02 0.02
0.00 0.00 0.01 0.01 0.01 0.01 0.01 0.01 0.01 0.01 0.01 0.01 0.01 0.02 0.02 0.02 0.03 0.03 0.03 0.04 0.04 0.05 0.10 0.15 0.18 0.22 0.25 0.27 0.32 0.35 0.35 0.31 0.29 0.30 0.27 0.23 0.19 0.13 0.05 0.03 0.02 0.02 0.02
0.00 0.00 0.00 0.00 0.00 0.00 0.00 0.00 0.00 0.00 0.00 0.00 0.01 0.01 0.01 0.01 0.01 0.01 0.02 0.02 0.02 0.02 0.04 0.07 0.12 0.18 0.22 0.25 0.28 0.31 0.31 0.29 0.27 0.26 0.22 0.18 0.14 0.10 0.07 0.05 0.02 0.01 0.01
0.00 0.00 0.00 0.00 0.00 0.00 0.00 0.00 0.00 0.00 0.00 0.00 0.01 0.01 0.00 0.00 0.00 0.00 0.01 0.01 0.01 0.00 0.01 0.03 0.06 0.11 0.16 0.19 0.18 0.18 0.23 0.26 0.27 0.27 0.20 0.13 0.12 0.12 0.09 0.06 0.02 0.00 0.00
0.00 0.00 0.00 0.00 0.00 0.00 0.00 0.00 0.00 0.01 0.01 0.01 0.01 0.02 0.01 0.01 0.00 0.00 0.00 0.00 0.00 0.01 0.00 0.01 0.02 0.05 0.10 0.15 0.19 0.21 0.21 0.21 0.22 0.24 0.22 0.16 0.11 0.08 0.08 0.09 0.05 0.02 0.00
0.00 0.00 0.00 0.00 0.00 0.00 0.00 0.00 0.00 0.01 0.02 0.02 0.02 0.02 0.02 0.02 0.01 0.00 0.00 0.00 0.00 0.00 0.00 0.01 0.01 0.02 0.04 0.07 0.13 0.18 0.21 0.22 0.22 0.19 0.22 0.23 0.16 0.08 0.05 0.04 0.04 0.04 0.01
0.00 0.00 0.00 0.00 0.00 0.00 0.00 0.00 0.00 0.01 0.01 0.01 0.01 0.01 0.01 0.01 0.01 0.00 0.00 0.00 0.00 0.00 0.00 0.00 0.01 0.01 0.02 0.03 0.05 0.11 0.17 0.21 0.22 0.21 0.21 0.23 0.22 0.13 0.08 0.06 0.04 0.03 0.02
0.00 0.00 0.00 0.00 0.00 0.00 0.00 0.00 0.00 0.00 0.00 0.00 0.00 0.00 0.00 0.00 0.00 0.00 0.00 0.00 0.00 0.00 0.00 0.00 0.00 0.01 0.01 0.01 0.02 0.04 0.09 0.15 0.19 0.21 0.23 0.24 0.21 0.21 0.17 0.13 0.11 0.10 0.06
0.00 0.00 0.00 0.00 0.00 0.00 0.00 0.00 0.00 0.00 0.00 0.00 0.00 0.00 0.00 0.01 0.01 0.00 0.00 0.00 0.00 0.00 0.00 0.00 0.00 0.00 0.01 0.01 0.02 0.03 0.05 0.08 0.13 0.17 0.21 0.24 0.25 0.25 0.21 0.19 0.15 0.15 0.17
0.00 0.00 0.00 0.00 0.00 0.00 0.00 0.00 0.00 0.00 0.00 0.00 0.00 0.00 0.00 0.00 0.01 0.00 0.00 0.00 0.00 0.00 0.00 0.00 0.01 0.01 0.01 0.01 0.02 0.02 0.03 0.06 0.08 0.11 0.16 0.20 0.24 0.30 0.29 0.26 0.21 0.18 0.17
0.00 0.00 0.00 0.00 0.00 0.00 0.00 0.00 0.00 0.00 0.00 0.00 0.00 0.00 0.00 0.00 0.00 0.00 0.00 0.01 0.01 0.01 0.01 0.01 0.01 0.01 0.01 0.01 0.02 0.02 0.02 0.03 0.05 0.07 0.11 0.15 0.21 0.27 0.30 0.32 0.29 0.25 0.21
0.00 0.00 0.00 0.00 0.00 0.00 0.00 0.00 0.00 0.00 0.00 0.00 0.00 0.00 0.00 0.00 0.00 0.00 0.01 0.01 0.01 0.01 0.01 0.01 0.01 0.01 0.01 0.01 0.02 0.02 0.02 0.02 0.02 0.04 0.06 0.08 0.14 0.21 0.27 0.32 0.32 0.30 0.29
0.00 0.00 0.00 0.00 0.00 0.00 0.00 0.00 0.00 0.00 0.00 0.00 0.00 0.00 0.01 0.01 0.01 0.01 0.01 0.01 0.02 0.02 0.02 0.02 0.03 0.02 0.02 0.02 0.02 0.02 0.02 0.02 0.02 0.02 0.04 0.06 0.08 0.12 0.19 0.27 0.31 0.31 0.30
0.00 0.00 0.00 0.00 0.00 0.00 0.00 0.00 0.00 0.00 0.00 0.00 0.00 0.01 0.01 0.01 0.01 0.01 0.01 0.01 0.02 0.03 0.03 0.03 0.04 0.04 0.04 0.03 0.03 0.03 0.04 0.04 0.03 0.02 0.02 0.04 0.07 0.10 0.13 0.17 0.24 0.30 0.33
0.00 0.00 0.00 0.00 0.00 0.00 0.00 0.00 0.00 0.00 0.00 0.01 0.01 0.01 0.01 0.01 0.01 0.01 0.02 0.02 0.02 0.02 0.03 0.04 0.05 0.05 0.05 0.03 0.03 0.05 0.05 0.06 0.06 0.04 0.03 0.02 0.03 0.06 0.10 0.15 0.20 0.26 0.29
0.00 0.00 0.00 0.00 0.00 0.00 0.00 0.00 0.00 0.00 0.01 0.01 0.01 0.01 0.01 0.01 0.01 0.02 0.02 0.03 0.04 0.04 0.05 0.05 0.06 0.06 0.04 0.02 0.02 0.04 0.05 0.07 0.08 0.07 0.06 0.03 0.01 0.02 0.04 0.08 0.14 0.21 0.27
0.00 0.00 0.00 0.00 0.00 0.00 0.00 0.00 0.00 0.01 0.01 0.01 0.01 0.01 0.01 0.02 0.02 0.02 0.03 0.04 0.05 0.06 0.07 0.07 0.07 0.08 0.08 0.04 0.03 0.02 0.03 0.05 0.08 0.09 0.10 0.05 0.01 0.01 0.01 0.03 0.06 0.11 0.18
0.00 0.00 0.00 0.00 0.00 0.00 0.00 0.00 0.00 0.01 0.01 0.01 0.01 0.02 0.02 0.02 0.03 0.04 0.05 0.06 0.08 0.09 0.09 0.09 0.09 0.11 0.09 0.06 0.04 0.03 0.02 0.04 0.06 0.09 0.11 0.09 0.06 0.03 0.02 0.02 0.04 0.05 0.07
0.00 0.00 0.00 0.00 0.00 0.00 0.00 0.00 0.01 0.01 0.01 0.01 0.02 0.02 0.02 0.03 0.04 0.04 0.05 0.08 0.09 0.09 0.10 0.11 0.12 0.13 0.12 0.10 0.05 0.03 0.04 0.06 0.07 0.08 0.09 0.09 0.08 0.05 0.02 0.02 0.04 0.06 0.06
0.00 0.00 0.00 0.00 0.00 0.01 0.01 0.01 0.01 0.01 0.02 0.02 0.02 0.02 0.03 0.04 0.05 0.06 0.07 0.08 0.10 0.10 0.11 0.11 0.14 0.15 0.16 0.15 0.05 0.03 0.05 0.08 0.10 0.12 0.12 0.09 0.10 0.07 0.02 0.02 0.04 0.05 0.07
0.00 0.00 0.00 0.00 0.01 0.01 0.02 0.01 0.02 0.02 0.02 0.01 0.02 0.02 0.04 0.05 0.05 0.07 0.09 0.10 0.11 0.12 0.12 0.13 0.15 0.17 0.16 0.14 0.05 0.03 0.05 0.09 0.12 0.13 0.14 0.12 0.07 0.03 0.02 0.02 0.03 0.04 0.07
0.00 0.00 0.00 0.00 0.01 0.01 0.02 0.02 0.02 0.02 0.01 0.01 0.02 0.03 0.04 0.04 0.05 0.08 0.10 0.12 0.14 0.13 0.12 0.12 0.13 0.16 0.17 0.13 0.07 0.02 0.03 0.07 0.14 0.16 0.16 0.15 0.10 0.04 0.02 0.01 0.01 0.01 0.04
0.00 0.00 0.00 0.00 0.01 0.01 0.02 0.02 0.02 0.02 0.02 0.02 0.02 0.03 0.04 0.06 0.08 0.10 0.11 0.13 0.15 0.14 0.12 0.12 0.13 0.15 0.18 0.15 0.05 0.01 0.01 0.02 0.09 0.17 0.19 0.16 0.09 0.05 0.03 0.01 0.01 0.00 0.02
0.00 0.00 0.00 0.00 0.01 0.01 0.01 0.02 0.02 0.02 0.02 0.03 0.03 0.03 0.04 0.06 0.09 0.11 0.12 0.13 0.14 0.12 0.11 0.12 0.13 0.15 0.17 0.17 0.11 0.05 0.02 0.01 0.03 0.08 0.12 0.11 0.08 0.04 0.02 0.01 0.01 0.01 0.02
0.00 0.00 0.00 0.01 0.01 0.01 0.01 0.01 0.02 0.02 0.02 0.02 0.03 0.03 0.04 0.07 0.08 0.10 0.12 0.10 0.09 0.06 0.05 0.07 0.09 0.12 0.14 0.12 0.10 0.10 0.09 0.06 0.05 0.09 0.13 0.12 0.09 0.04 0.03 0.02 0.02 0.02 0.02
0.00 0.00 0.00 0.00 0.01 0.01 0.01 0.01 0.01 0.02 0.02 0.03 0.03 0.03 0.04 0.06 0.08 0.10 0.13 0.09 0.05 0.03 0.02 0.02 0.02 0.05 0.05 0.03 0.01 0.02 0.03 0.03 0.03 0.07 0.14 0.14 0.13 0.08 0.04 0.04 0.04 0.04 0.03
MSLP
1011.25 1011.40 1011.44 1011.38 1011.24 1011.06 1010.91 1010.81 1010.80 1010.88 1011.02 1011.19 1011.35 1011.46 1011.50 1011.45 1011.34 1011.19 1011.04 1010.90 1010.81 1010.77 1010.77 1010.81 1010.87 1010.93 1010.99 1011.05 1011.11 1011.18 1011.26 1011.36 1011.45 1011.51 1011.52 1011.46 1011.32 1011.10 1010.83 1010.56 1010.31 1010.14 1010.10
1011.03 1011.20 1011.28 1011.26 1011.15 1011.01 1010.88 1010.80 1010.81 1010.92 1011.09 1011.30 1011.49 1011.61 1011.63 1011.55 1011.37 1011.12 1010.87 1010.64 1010.48 1010.40 1010.41 1010.48 1010.60 1010.74 1010.86 1010.98 1011.07 1011.14 1011.21 1011.26 1011.30 1011.31 1011.26 1011.16 1010.97 1010.71 1010.39 1010.05 1009.74 1009.51 1009.39
1010.64 1010.82 1010.94 1010.97 1010.93 1010.84 1010.75 1010.72 1010.77 1010.92 1011.13 1011.38 1011.60 1011.74 1011.76 1011.64 1011.40 1011.09 1010.75 1010.44 1010.21 1010.09 1010.08 1010.17 1010.32 1010.51 1010.68 1010.84 1010.96 1011.05 1011.11 1011.15 1011.16 1011.15 1011.09 1010.97 1010.77 1010.49 1010.15 1009.77 1009.41 1009.11 1008.92
1010.20 1010.39 1010.55 1010.64 1010.67 1010.65 1010.62 1010.63 1010.72 1010.90 1011.15 1011.43 1011.67 1011.83 1011.85 1011.72 1011.45 1011.09 1010.69 1010.32 1010.03 1009.86 1009.82 1009.90 1010.06 1010.26 1010.46 1010.64 1010.79 1010.90 1010.97 1011.03 1011.06 1011.06 1011.02 1010.93 1010.75 1010.49 1010.15 1009.77 1009.37 1009.01 1008.75
1009.81 1010.01 1010.22 1010.38 1010.48 1010.52 1010.54 1010.58 1010.70 1010.89 1011.15 1011.44 1011.70 1011.87 1011.91 1011.78 1011.50 1011.12 1010.69 1010.28 1009.94 1009.72 1009.64 1009.68 1009.81 1010.00 1010.21 1010.40 1010.56 1010.69 1010.79 1010.88 1010.96 1011.02 1011.04 1011.01 1010.90 1010.69 1010.39 1010.01 1009.59 1009.19 1008.85
1009.53 1009.76 1010.03 1010.25 1010.41 1010.49 1010.54 1010.59 1010.70 1010.88 1011.12 1011.40 1011.66 1011.83 1011.88 1011.78 1011.52 1011.14 1010.70 1010.27 1009.90 1009.64 1009.50 1009.49 1009.58 1009.73 1009.91 1010.09 1010.26 1010.41 1010.55 1010.70 1010.84 1010.98 1011.09 1011.15 1011.13 1011.00 1010.75 1010.40 1009.99 1009.55 1009.15
1009.38 1009.67 1009.98 1010.26 1010.46 1010.57 1010.62 1010.65 1010.72 1010.85 1011.05 1011.29 1011.53 1011.70 1011.76 1011.68 1011.45 1011.11 1010.69 1010.26 1009.87 1009.57 1009.39 1009.32 1009.35 1009.45 1009.58 1009.73 1009.89 1010.06 1010.24 1010.44 1010.65 1010.88 1011.09 1011.25 1011.33 1011.29 1011.11 1010.82 1010.42 1009.98 1009.54
1009.36 1009.70 1010.07 1010.39 1010.61 1010.72 1010.75 1010.74 1010.74 1010.80 1010.93 1011.11 1011.30 1011.46 1011.53 1011.47 1011.28 1010.97 1010.59 1010.18 1009.80 1009.48 1009.25 1009.13 1009.10 1009.13 1009.21 1009.33 1009.47 1009.63 1009.83 1010.07 1010.35 1010.65 1010.95 1011.20 1011.38 1011.43 1011.34 1011.11 1010.77 1010.35 1009.91
1009.44 1009.84 1010.25 1010.59 1010.81 1010.90 1010.89 1010.81 1010.74 1010.72 1010.76 1010.86 1011.00 1011.12 1011.18 1011.14 1010.99 1010.73 1010.39 1010.01 1009.64 1009.32 1009.07 1008.90 1008.81 1008.79 1008.82 1008.89 1008.99 1009.14 1009.34 1009.60 1009.91 1010.25 1010.61 1010.94 1011.19 1011.33 1011.33 1011.18 1010.90 1010.54 1010.14
1009.59 1010.03 1010.47 1010.81 1011.01 1011.06 1011.00 1010.86 1010.71 1010.60 1010.55 1010.58 1010.65 1010.73 1010.76 1010.73 1010.60 1010.37 1010.07 1009.73 1009.39 1009.08 1008.82 1008.63 1008.50 1008.43 1008.41 1008.43 1008.50 1008.61 1008.78 1009.03 1009.33 1009.69 1010.07 1010.44 1010.74 1010.95 1011.03 1010.97 1010.78 1010.50 1010.18
1009.79 1010.25 1010.68 1011.00 1011.16 1011.17 1011.06 1010.86 1010.64 1010.46 1010.34 1010.29 1010.29 1010.32 1010.32 1010.26 1010.14 1009.93 1009.66 1009.36 1009.05 1008.76 1008.51 1008.32 1008.17 1008.07 1008.01 1007.99 1008.01 1008.07 1008.20 1008.40 1008.67 1009.00 1009.36 1009.73 1010.06 1010.31 1010.45 1010.48 1010.40 1010.23 1010.03
1010.04 1010.48 1010.86 1011.13 1011.25 1011.21 1011.05 1010.81 1010.56 1010.33 1010.15 1010.04 1009.97 1009.93 1009.88 1009.80 1009.65 1009.45 1009.20 1008.92 1008.64 1008.38 1008.15 1007.97 1007.82 1007.71 1007.63 1007.57 1007.54 1007.56 1007.62 1007.76 1007.96 1008.24 1008.56 1008.90 1009.22 1009.50 1009.70 1009.81 1009.83 1009.79 1009.72
1010.31 1010.69 1011.00 1011.19 1011.25 1011.16 1010.97 1010.72 1010.45 1010.19 1009.98 1009.83 1009.71 1009.61 1009.50 1009.36 1009.18 1008.95 1008.70 1008.43 1008.17 1007.94 1007.74 1007.58 1007.45 1007.34 1007.25 1007.16 1007.09 1007.05 1007.06 1007.12 1007.26 1007.46 1007.72 1008.02 1008.33 1008.62 1008.86 1009.05 1009.17 1009.25 1009.31
1010.57 1010.85 1011.06 1011.17 1011.15 1011.03 1010.82 1010.57 1010.30 1010.05 1009.83 1009.65 1009.48 1009.33 1009.15 1008.95 1008.72 1008.46 1008.19 1007.92 1007.67 1007.46 1007.28 1007.14 1007.03 1006.93 1006.83 1006.73 1006.63 1006.55 1006.50 1006.50 1006.57 1006.71 1006.92 1007.18 1007.47 1007.77 1008.05 1008.30 1008.51 1008.70 1008.87
1010.78 1010.95 1011.04 1011.05 1010.96 1010.80 1010.59 1010.35 1010.11 1009.88 1009.67 1009.48 1009.28 1009.07 1008.84 1008.57 1008.28 1007.97 1007.67 1007.38 1007.13 1006.92 1006.76 1006.63 1006.52 1006.43 1006.32 1006.21 1006.10 1005.99 1005.91 1005.87 1005.90 1006.00 1006.17 1006.41 1006.69 1007.00 1007.32 1007.63 1007.91 1008.18 1008.44
1010.88 1010.93 1010.90 1010.81 1010.67 1010.48 1010.27 1010.06 1009.85 1009.66 1009.47 1009.27 1009.05 1008.80 1008.51 1008.19 1007.83 1007.47 1007.12 1006.81 1006.54 1006.32 1006.15 1006.02 1005.91 1005.80 1005.69 1005.57 1005.45 1005.33 1005.24 1005.19 1005.21 1005.30 1005.48 1005.72 1006.02 1006.35 1006.70 1007.06 1007.40 1007.72 1008.03
1010.85 1010.77 1010.64 1010.47 1010.27 1010.06 1009.86 1009.68 1009.51 1009.35 1009.18 1008.99 1008.75 1008.47 1008.14 1007.76 1007.35 1006.94 1006.55 1006.20 1005.89 1005.65 1005.45 1005.30 1005.16 1005.04 1004.92 1004.79 1004.66 1004.54 1004.46 1004.44 1004.48 1004.60 1004.81 1005.09 1005.42 1005.80 1006.19 1006.58 1006.95 1007.31 1007.65
1010.65 1010.48 1010.27 1010.03 1009.79 1009.57 1009.39 1009.23 1009.09 1008.96 1008.81 1008.62 1008.37 1008.06 1007.69 1007.27 1006.82 1006.37 1005.94 1005.55 1005.21 1004.92 1004.69 1004.49 1004.32 1004.16 1004.01 1003.87 1003.74 1003.64 1003.59 1003.61 1003.71 1003.89 1004.15 1004.49 1004.88 1005.30 1005.74 1006.16 1006.56 1006.92 1007.26
1010.33 1010.09 1009.82 1009.54 1009.28 1009.07 1008.89 1008.75 1008.64 1008.52 1008.37 1008.17 1007.91 1007.58 1007.18 1006.72 1006.24 1005.76 1005.30 1004.87 1004.50 1004.17 1003.90 1003.65 1003.43 1003.24 1003.05 1002.89 1002.76 1002.69 1002.68 1002.75 1002.92 1003.17 1003.51 1003.92 1004.37 1004.84 1005.31 1005.75 1006.16 1006.53 1006.85
1009.92 1009.65 1009.36 1009.07 1008.81 1008.59 1008.43 1008.30 1008.19 1008.06 1007.90 1007.68 1007.39 1007.03 1006.60 1006.13 1005.63 1005.13 1004.65 1004.21 1003.81 1003.45 1003.13 1002.84 1002.58 1002.34 1002.13 1001.95 1001.83 1001.77 1001.81 1001.94 1002.17 1002.50 1002.91 1003.38 1003.88 1004.39 1004.88 1005.34 1005.74 1006.10 1006.40
1009.50 1009.23 1008.94 1008.66 1008.42 1008.22 1008.06 1007.93 1007.80 1007.65 1007.45 1007.19 1006.86 1006.46 1006.01 1005.51 1005.00 1004.50 1004.01 1003.57 1003.16 1002.79 1002.45 1002.13 1001.84 1001.57 1001.34 1001.16 1001.04 1001.01 1001.08 1001.26 1001.55 1001.93 1002.39 1002.90 1003.43 1003.95 1004.44 1004.89 1005.28 1005.62 1005.91
1009.13 1008.89 1008.63 1008.38 1008.16 1007.98 1007.82 1007.67 1007.51 1007.31 1007.06 1006.74 1006.35 1005.91 1005.41 1004.90 1004.38 1003.88 1003.41 1002.97 1002.58 1002.21 1001.88 1001.56 1001.26 1000.99 1000.76 1000.58 1000.48 1000.47 1000.57 1000.79 1001.10 1001.51 1001.99 1002.50 1003.03 1003.53 1004.00 1004.42 1004.78 1005.09 1005.36
1008.85 1008.65 1008.44 1008.23 1008.04 1007.87 1007.71 1007.53 1007.32 1007.06 1006.74 1006.34 1005.89 1005.38 1004.84 1004.30 1003.77 1003.28 1002.83 1002.42 1002.06 1001.73 1001.42 1001.14 1000.87 1000.62 1000.42 1000.26 1000.19 1000.20 1000.32 1000.55 1000.87 1001.27 1001.73 1002.21 1002.69 1003.14 1003.56 1003.92 1004.23 1004.51 1004.76
1008.64 1008.49 1008.34 1008.18 1008.02 1007.87 1007.69 1007.48 1007.22 1006.89 1006.48 1006.00 1005.46 1004.89 1004.30 1003.72 1003.18 1002.70 1002.27 1001.91 1001.59 1001.32 1001.07 1000.84 1000.63 1000.44 1000.28 1000.17 1000.13 1000.17 1000.30 1000.52 1000.82 1001.19 1001.59 1002.01 1002.41 1002.78 1003.12 1003.41 1003.66 1003.90 1004.13
1008.48 1008.39 1008.28 1008.17 1008.05 1007.90 1007.71 1007.47 1007.15 1006.75 1006.25 1005.69 1005.07 1004.43 1003.78 1003.17 1002.62 1002.14 1001.74 1001.42 1001.16 1000.95 1000.78 1000.63 1000.50 1000.38 1000.29 1000.23 1000.23 1000.29 1000.43 1000.63 1000.89 1001.20 1001.53 1001.85 1002.16 1002.44 1002.67 1002.88 1003.07 1003.26 1003.47
1008.30 1008.26 1008.20 1008.13 1008.03 1007.89 1007.69 1007.42 1007.05 1006.58 1006.02 1005.39 1004.70 1003.99 1003.29 1002.65 1002.08 1001.61 1001.23 1000.95 1000.75 1000.61 1000.51 1000.44 1000.39 1000.36 1000.34 1000.34 1000.38 1000.46 1000.60 1000.77 1000.98 1001.22 1001.46 1001.69 1001.89 1002.07 1002.21 1002.34 1002.46 1002.61 1002.79
Thickness
5757 5757 5757 5756 5754 5752 5749 5746 5743 5740 5738 5734 5730 5727 5725 5725 5724 5723 5721 5719 5716 5714 5713 5712 5712 5713 5712 5713 5713 5713 5711 5712 5713 5710 5712 5718 5725 5729 5733 5737 5740 5743 5746
5750 5750 5749 5748 5746 5743 5740 5738 5735 5731 5728 5724 5721 5719 5717 5716 5716 5715 5713 5711 5709 5707 5707 5705 5704 5705 5705 5706 5707 5707 5704 5706 5709 5705 5703 5705 5713 5723 5733 5736 5738 5741 5745
5747 5746 5744 5742 5740 5736 5733 5732 5726 5722 5718 5714 5712 5709 5707 5706 5705 5703 5702 5702 5701 5700 5698 5696 5696 5696 5696 5697 5699 5699 5698 5698 5703 5704 5700 5698 5702 5714 5725 5731 5736 5738 5740
5749 5745 5741 5738 5735 5732 5730 5725 5720 5715 5710 5704 5699 5694 5690 5689 5690 5691 5692 5691 5691 5691 5690 5688 5687 5687 5688 5688 5690 5692 5692 5692 5693 5696 5699 5701 5704 5704 5708 5720 5730 5734 5736
5745 5740 5737 5733 5730 5727 5723 5718 5713 5707 5701 5694 5688 5684 5680 5679 5678 5678 5678 5679 5680 5681 5681 5680 5679 5678 5678 5678 5680 5682 5683 5684 5686 5687 5690 5694 5698 5703 5702 5703 5714 5723 5730
5742 5737 5734 5730 5725 5721 5716 5709 5702 5696 5691 5685 5679 5674 5670 5667 5665 5664 5664 5667 5670 5672 5673 5672 5670 5669 5668 5668 5669 5671 5674 5676 5679 5681 5683 5684 5687 5693 5697 5699 5704 5710 5720
5739 5734 5728 5723 5717 5712 5706 5700 5692 5686 5681 5675 5670 5666 5661 5658 5656 5656 5657 5657 5658 5659 5660 5662 5660 5659 5659 5659 5660 5661 5663 5667 5670 5673 5676 5678 5682 5687 5692 5694 5698 5705 5714
5737 5730 5724 5718 5711 5704 5698 5691 5684 5677 5673 5667 5662 5658 5654 5651 5651 5650 5648 5646 5647 5648 5650 5650 5650 5649 5649 5650 5651 5652 5654 5657 5660 5663 5667 5671 5674 5678 5684 5687 5689 5692 5702
5733 5727 5720 5713 5706 5697 5690 5683 5676 5670 5665 5660 5655 5651 5649 5646 5643 5641 5640 5640 5640 5641 5641 5640 5639 5639 5639 5639 5640 5641 5643 5646 5649 5653 5657 5662 5666 5671 5676 5680 5684 5684 5686
5728 5721 5713 5706 5699 5691 5684 5677 5670 5663 5658 5653 5649 5646 5642 5638 5636 5634 5632 5631 5630 5630 5630 5629 5629 5629 5629 5629 5629 5630 5633 5634 5637 5641 5645 5650 5656 5661 5667 5671 5677 5682 5683
5720 5713 5706 5699 5692 5684 5676 5669 5662 5656 5651 5646 5642 5638 5634 5632 5629 5626 5625 5623 5622 5620 5619 5618 5617 5617 5617 5617 5617 5618 5621 5623 5625 5629 5633 5638 5644 5650 5656 5662 5667 5672 5677
5715 5707 5699 5691 5683 5675 5668 5660 5654 5648 5643 5639 5634 5630 5627 5624 5620 5618 5616 5614 5612 5610 5608 5606 5605 5604 5604 5604 5604 5605 5609 5611 5614 5617 5621 5626 5633 5639 5645 5651 5657 5662 5668
5708 5700 5692 5683 5675 5667 5659 5653 5647 5641 5636 5632 5627 5623 5619 5615 5611 5609 5606 5604 5601 5598 5596 5593 5591 5590 5590 5590 5591 5592 5594 5598 5602 5606 5610 5615 5620 5626 5633 5639 5646 5653 5660
5699 5691 5683 5675 5667 5660 5652 5645 5640 5634 5629 5624 5619 5614 5610 5607 5603 5600 5597 5593 5590 5587 5583 5581 5578 5577 5576 5576 5576 5577 5580 5584 5589 5594 5599 5604 5609 5615 5620 5628 5636 5643 5649
5693 5684 5676 5668 5661 5653 5646 5639 5633 5627 5622 5616 5611 5607 5603 5599 5596 5592 5588 5584 5579 5576 5572 5569 5566 5564 5562 5563 5564 5564 5566 5570 5575 5580 5586 5593 5598 5605 5611 5618 5625 5632 5638
5686 5678 5670 5662 5654 5647 5640 5634 5627 5621 5615 5609 5605 5601 5596 5593 5588 5584 5580 5575 5571 5566 5561 5557 5554 5552 5551 5553 5551 5550 5553 5557 5562 5567 5574 5580 5587 5593 5599 5607 5614 5621 5629
5681 5672 5664 5656 5649 5643 5636 5628 5622 5616 5610 5604 5599 5595 5590 5586 5581 5576 5572 5567 5561 5556 5551 5547 5544 5542 5540 5538 5537 5537 5539 5544 5550 5556 5561 5568 5578 5583 5589 5594 5601 5609 5618
5675 5667 5659 5653 5647 5639 5632 5624 5617 5610 5604 5599 5594 5589 5584 5580 5575 5569 5564 5558 5553 5547 5542 5539 5536 5533 5531 5529 5527 5527 5529 5534 5541 5547 5552 5556 5565 5574 5579 5585 5591 5599 5608
5671 5663 5656 5650 5642 5635 5627 5619 5612 5605 5599 5593 5588 5583 5578 5573 5568 5563 5557 5552 5546 5541 5536 5533 5530 5527 5525 5522 5520 5518 5521 5527 5533 5539 5544 5549 5555 5563 5570 5576 5584 5591 5599
5668 5661 5654 5646 5638 5630 5622 5613 5607 5601 5594 5589 5584 5578 5573 5568 5563 5558 5552 5547 5541 5536 5533 5530 5526 5523 5521 5519 5515 5512 5515 5520 5526 5531 5537 5542 5547 5552 5559 5567 5574 5581 5589
5665 5658 5650 5641 5633 5626 5618 5609 5603 5596 5590 5585 5580 5575 5570 5564 5560 5555 5549 5543 5538 5533 5529 5526 5523 5520 5518 5515 5512 5509 5511 5515 5519 5524 5529 5535 5539 5545 5551 5559 5566 5574 5582
5662 5654 5645 5637 5630 5623 5614 5606 5599 5593 5587 5582 5577 5572 5568 5563 5559 5552 5546 5540 5535 5530 5527 5523 5521 5518 5515 5512 5509 5506 5505 5509 5513 5517 5523 5528 5532 5538 5544 5551 5559 5566 5574
5657 5649 5641 5634 5627 5620 5611 5603 5596 5590 5585 5579 5575 5570 5566 5562 5556 5550 5544 5538 5533 5527 5523 5519 5517 5514 5512 5509 5506 5503 5501 5502 5506 5511 5516 5520 5525 5530 5536 5544 5552 5559 5567
5653 5646 5638 5630 5623 5617 5609 5601 5594 5588 5582 5577 5573 5569 5565 5561 5556 5549 5543 5536 5530 5525 5520 5516 5513 5511 5509 5507 5505 5503 5501 5499 5502 5507 5511 5515 5520 5525 5532 5539 5546 5554 5564
5650 5642 5634 5627 5621 5614 5607 5600 5592 5586 5580 5575 5572 5568 5564 5560 5554 5549 5542 5535 5528 5520 5514 5512 5509 5506 5505 5501 5499 5501 5503 5505 5507 5508 5510 5514 5518 5523 5531 5539 5546 5552 5559
5646 5639 5631 5625 5618 5612 5605 5598 5591 5584 5578 5574 5570 5567 5563 5560 5554 5549 5543 5535 5527 5519 5512 5505 5501 5502 5499 5497 5498 5499 5501 5504 5506 5509 5512 5516 5521 5526 5533 5540 5546 5552 5559